Hourly Weather Abay (Saryagashskiy rayon)

Today, 28 September, Monday

Time Temperature Precipitation Wind Pressure Humidity
00:00 +15°C° 0 mm 1 mps 729 mmHg 32%
01:00 +15°C° 0 mm 1 mps 729 mmHg 32%
02:00 +14°C° 0 mm 1 mps 729 mmHg 33%
03:00 +14°C° 0 mm 1 mps 730 mmHg 34%
04:00 +13°C° 0 mm 1 mps 730 mmHg 36%
05:00 +13°C° 0 mm 1 mps 730 mmHg 37%
06:00 +14°C° 0 mm 1 mps 730 mmHg 35%
07:00 +15°C° 0 mm 1 mps 730 mmHg 33%
08:00 +16°C° 0 mm 1 mps 731 mmHg 31%
09:00 +18°C° 0 mm 2 mps 731 mmHg 27%
10:00 +20°C° 0 mm 2 mps 731 mmHg 23%
11:00 +24°C° 0 mm 2 mps 731 mmHg 20%
12:00 +25°C° 0 mm 2 mps 731 mmHg 18%
13:00 +26°C° 0 mm 2 mps 731 mmHg 16%
14:00 +27°C° 0 mm 3 mps 731 mmHg 14%
15:00 +26°C° 0 mm 3 mps 731 mmHg 14%
16:00 +26°C° 0 mm 3 mps 732 mmHg 14%
17:00 +25°C° 0 mm 3 mps 732 mmHg 15%
18:00 +22°C° 0 mm 3 mps 732 mmHg 17%
19:00 +20°C° 0 mm 2 mps 732 mmHg 19%
20:00 +19°C° 0 mm 2 mps 732 mmHg 21%
21:00 +19°C° 0 mm 1 mps 732 mmHg 22%
22:00 +19°C° 0 mm 1 mps 732 mmHg 22%
23:00 +16°C° 0 mm 0 mps 732 mmHg 23%

Tomorrow, 29 September, Tuesday

Time Temperature Precipitation Wind Pressure Humidity
00:00 +19°C° 0 mm 1 mps 732 mmHg 23%
01:00 +19°C° 0 mm 1 mps 732 mmHg 23%
02:00 +19°C° 0 mm 1 mps 732 mmHg 23%
03:00 +17°C° 0 mm 2 mps 732 mmHg 25%
04:00 +17°C° 0 mm 2 mps 732 mmHg 27%
05:00 +16°C° 0 mm 2 mps 732 mmHg 29%
06:00 +17°C° 0 mm 2 mps 732 mmHg 28%
07:00 +17°C° 0 mm 3 mps 732 mmHg 27%
08:00 +17°C° 0 mm 3 mps 733 mmHg 26%
09:00 +18°C° 0 mm 3 mps 733 mmHg 24%
10:00 +19°C° 0 mm 3 mps 733 mmHg 23%
11:00 +20°C° 0 mm 4 mps 733 mmHg 22%
12:00 +21°C° 0 mm 4 mps 733 mmHg 22%
13:00 +21°C° 0 mm 4 mps 733 mmHg 21%
14:00 +22°C° 0 mm 4 mps 733 mmHg 21%
15:00 +22°C° 0 mm 4 mps 733 mmHg 22%
16:00 +22°C° 0 mm 5 mps 733 mmHg 23%
17:00 +22°C° 0 mm 5 mps 733 mmHg 24%
18:00 +21°C° 0 mm 5 mps 732 mmHg 27%
19:00 +20°C° 0 mm 5 mps 732 mmHg 29%
20:00 +19°C° 0 mm 6 mps 732 mmHg 32%
21:00 +17°C° 0 mm 5 mps 732 mmHg 33%
22:00 +17°C° 0 mm 4 mps 731 mmHg 34%
23:00 +15°C° 0 mm 4 mps 731 mmHg 35%

Day after tomorrow, 30 September, Wednesday

Time Temperature Precipitation Wind Pressure Humidity
00:00 +16°C° 0 mm 3 mps 731 mmHg 34%
01:00 +15°C° 0 mm 2 mps 731 mmHg 34%
02:00 +15°C° 0 mm 2 mps 731 mmHg 33%
03:00 +15°C° 0 mm 2 mps 731 mmHg 36%
04:00 +15°C° 0 mm 2 mps 732 mmHg 39%
05:00 +13°C° 0 mm 3 mps 732 mmHg 42%
06:00 +14°C° 0.1 mm 2 mps 732 mmHg 45%
07:00 +13°C° 0.1 mm 2 mps 733 mmHg 47%
08:00 +13°C° 0.1 mm 2 mps 733 mmHg 50%
09:00 +14°C° 0 mm 2 mps 733 mmHg 51%
10:00 +14°C° 0 mm 2 mps 733 mmHg 52%
11:00 +15°C° 0 mm 2 mps 733 mmHg 54%
12:00 +16°C° 0 mm 2 mps 733 mmHg 49%
13:00 +18°C° 0 mm 2 mps 733 mmHg 44%
14:00 +20°C° 0 mm 2 mps 733 mmHg 39%
15:00 +21°C° 0 mm 1 mps 733 mmHg 37%
16:00 +21°C° 0 mm 1 mps 733 mmHg 36%
17:00 +21°C° 0 mm 1 mps 733 mmHg 34%
18:00 +19°C° 0 mm 2 mps 733 mmHg 39%
19:00 +17°C° 0 mm 2 mps 733 mmHg 44%
20:00 +16°C° 0 mm 3 mps 733 mmHg 49%
21:00 +14°C° 0 mm 3 mps 732 mmHg 52%
22:00 +13°C° 0 mm 3 mps 732 mmHg 54%
23:00 +13°C° 0 mm 3 mps 732 mmHg 56%

1 October, Thursday

Time Temperature Precipitation Wind Pressure Humidity
00:00 +14°C° 0 mm 2 mps 732 mmHg 56%
01:00 +13°C° 0 mm 2 mps 732 mmHg 56%
02:00 +13°C° 0 mm 2 mps 732 mmHg 55%
03:00 +13°C° 0 mm 2 mps 732 mmHg 54%
04:00 +13°C° 0 mm 1 mps 732 mmHg 52%
05:00 +13°C° 0 mm 1 mps 732 mmHg 51%
06:00 +14°C° 0 mm 1 mps 732 mmHg 46%
07:00 +15°C° 0 mm 1 mps 732 mmHg 41%
08:00 +16°C° 0 mm 1 mps 732 mmHg 37%
09:00 +19°C° 0 mm 1 mps 732 mmHg 31%
10:00 +22°C° 0 mm 1 mps 732 mmHg 25%
11:00 +24°C° 0 mm 1 mps 732 mmHg 19%
12:00 +25°C° 0 mm 2 mps 732 mmHg 18%
13:00 +26°C° 0 mm 2 mps 732 mmHg 17%
14:00 +26°C° 0 mm 3 mps 731 mmHg 16%
15:00 +26°C° 0 mm 3 mps 731 mmHg 16%
16:00 +26°C° 0 mm 4 mps 731 mmHg 16%
17:00 +26°C° 0 mm 4 mps 731 mmHg 16%
18:00 +22°C° 0 mm 4 mps 731 mmHg 19%
19:00 +20°C° 0 mm 4 mps 731 mmHg 22%
20:00 +18°C° 0 mm 4 mps 731 mmHg 26%
21:00 +18°C° 0 mm 4 mps 731 mmHg 26%
22:00 +17°C° 0 mm 4 mps 731 mmHg 26%
23:00 +15°C° 0 mm 4 mps 730 mmHg 27%

2 October, Friday

Time Temperature Precipitation Wind Pressure Humidity
00:00 +16°C° 0 mm 3 mps 730 mmHg 28%
01:00 +16°C° 0 mm 3 mps 730 mmHg 29%
02:00 +16°C° 0 mm 3 mps 730 mmHg 30%
03:00 +15°C° 0 mm 2 mps 730 mmHg 32%
04:00 +15°C° 0 mm 1 mps 730 mmHg 33%
05:00 +14°C° 0 mm 1 mps 730 mmHg 34%
06:00 +15°C° 0 mm 1 mps 731 mmHg 32%
07:00 +16°C° 0 mm 1 mps 731 mmHg 30%
08:00 +18°C° 0 mm 1 mps 731 mmHg 27%
09:00 +21°C° 0 mm 1 mps 731 mmHg 24%
10:00 +23°C° 0 mm 1 mps 731 mmHg 20%
11:00 +25°C° 0 mm 1 mps 731 mmHg 17%
12:00 +26°C° 0 mm 2 mps 731 mmHg 16%
13:00 +27°C° 0 mm 2 mps 731 mmHg 15%
14:00 +27°C° 0 mm 2 mps 731 mmHg 14%
15:00 +27°C° 0 mm 3 mps 731 mmHg 14%
16:00 +26°C° 0 mm 3 mps 731 mmHg 14%
17:00 +26°C° 0 mm 4 mps 731 mmHg 14%
18:00 +24°C° 0 mm 3 mps 731 mmHg 16%
19:00 +21°C° 0 mm 3 mps 731 mmHg 17%
20:00 +19°C° 0 mm 2 mps 731 mmHg 19%
21:00 +18°C° 0 mm 2 mps 731 mmHg 21%
22:00 +17°C° 0 mm 2 mps 731 mmHg 22%
23:00 +16°C° 0 mm 2 mps 731 mmHg 24%

3 October, Saturday

Time Temperature Precipitation Wind Pressure Humidity
00:00 +16°C° 0 mm 1 mps 731 mmHg 25%
01:00 +15°C° 0 mm 1 mps 731 mmHg 26%
02:00 +15°C° 0 mm 1 mps 731 mmHg 27%
03:00 +14°C° 0 mm 1 mps 731 mmHg 28%
04:00 +14°C° 0 mm 1 mps 731 mmHg 29%
05:00 +13°C° 0 mm 1 mps 731 mmHg 30%
06:00 +14°C° 0 mm 1 mps 731 mmHg 28%
07:00 +15°C° 0 mm 1 mps 732 mmHg 25%
08:00 +16°C° 0 mm 1 mps 732 mmHg 23%
09:00 +19°C° 0 mm 1 mps 732 mmHg 20%
10:00 +22°C° 0 mm 1 mps 732 mmHg 17%
11:00 +24°C° 0 mm 1 mps 732 mmHg 14%
12:00 +25°C° 0 mm 2 mps 732 mmHg 13%
13:00 +26°C° 0 mm 2 mps 732 mmHg 12%
14:00 +27°C° 0 mm 3 mps 733 mmHg 10%
15:00 +26°C° 0 mm 3 mps 732 mmHg 11%
16:00 +26°C° 0 mm 3 mps 732 mmHg 12%
17:00 +25°C° 0 mm 3 mps 732 mmHg 13%
18:00 +22°C° 0 mm 3 mps 732 mmHg 15%
19:00 +20°C° 0 mm 2 mps 733 mmHg 17%
20:00 +18°C° 0 mm 2 mps 733 mmHg 20%
21:00 +17°C° 0 mm 2 mps 733 mmHg 21%
22:00 +17°C° 0 mm 2 mps 733 mmHg 22%
23:00 +16°C° 0 mm 3 mps 733 mmHg 23%
Show more